Regional Weather Roundup
Issued by NWS Upton, NY

Current Version | Previous Version | Graphics & Text | Print | Product List | Glossary Off
Versions: 1 2 3 4 5 6 7 8 9 10 11 12 13 14 15 16 17 18 19 20 21 22 23 24 25 26 27

000
ASUS41 KOKX 011004
RWROKX

REGIONAL WEATHER ROUNDUP
NATIONAL WEATHER SERVICE NEW YORK NY
600 AM EDT SUN MAY 01 2016

NOTE: "FAIR" INDICATES FEW OR NO CLOUDS BELOW 12,000 FEET WITH NO
SIGNIFICANT WEATHER AND/OR OBSTRUCTIONS TO VISIBILITY.

NYZ071-072-176-178-NJZ106-104-011100-
NEW YORK CITY METRO AREA


CITY           SKY/WX    TMP DP  RH WIND       PRES   REMARKS
CENTRAL PARK   CLOUDY    50  36  58 VRB3      30.22S
LAGUARDIA APRT CLOUDY    50  36  58 E5        30.19S
KENNEDY INTL   CLOUDY    49  38  65 E7        30.22R
NEWARK/LIBERTY CLOUDY    50  38  63 SE5       30.19S
BRNX BOT. GARD   N/A     48  36  61 NE6       30.21R
TETERBORO      LGT RAIN  50  35  56 CALM      30.18F
$$

NYZ177-179-078>081-011100-
LONG ISLAND NEW YORK

CITY           SKY/WX    TMP DP  RH WIND       PRES   REMARKS
FARMINGDALE    CLOUDY    48  38  68 E5        30.21R
ISLIP          CLOUDY    47  39  74 E5        30.21R
SHIRLEY        CLOUDY    44  39  82 NE3       30.23R
RIVERHEAD        N/A     43  41  93 CALM      30.22R
WESTHAMPTON    CLOUDY    39  36  89 CALM      30.24R
EAST HAMPTON   FAIR      39  37  90 CALM      30.22S
MONTAUK POINT    N/A     44  40  85 CALM      30.25R
$$

NYZ052-065-067-011100-
HUDSON VALLEY

CITY           SKY/WX    TMP DP  RH WIND       PRES   REMARKS
WHITE PLAINS   MOCLDY    46  39  76 CALM      30.19S
NEWBURGH       CLOUDY    48  37  66 CALM      30.19F
MONTGOMERY     CLOUDY    48  40  73 CALM      30.18S
POUGHKEEPSIE   CLOUDY    49  38  65 SE3       30.18F
ALBANY         CLOUDY    51  35  54 S6        30.17S
$$

NJZ001-105-106-008-010-013-015-019>022-104-011100-
NEW JERSEY

CITY           SKY/WX    TMP DP  RH WIND       PRES   REMARKS
NEWARK/LIBERTY CLOUDY    50  38  63 SE5       30.19S
TETERBORO      LGT RAIN  50  35  56 CALM      30.18F
CALDWELL       CLOUDY    49  39  68 CALM      30.19S
MORRISTOWN     CLOUDY    46  39  76 CALM      30.19F
SOMERVILLE     CLOUDY    47  41  80 CALM      30.18S
SUSSEX         LGT RAIN  45  40  82 CALM      30.19S
ANDOVER          N/A     46  37  71 CALM      30.18S
TRENTON        CLOUDY    47  41  80 SE3       30.19S
MILLVILLE      LGT RAIN  48  45  89 E5        30.18S
ATLANTIC CITY  CLOUDY    49  46  90 CALM      30.19R
WRIGHTSTOWN    LGT RAIN  46  43  87 E2        30.17S
TOMS RIVER     CLOUDY    46  43  87 CALM      30.21R
BELMAR         CLOUDY    48  42  80 CALM      30.21R
$$

PAZ047>061-062-071-011100-
EASTERN PENNSYLVANIA

CITY           SKY/WX    TMP DP  RH WIND       PRES   REMARKS
PHILADELPHIA   LGT RAIN  49  42  77 E5        30.19S
ALLENTOWN      LGT RAIN  48  38  68 CALM      30.18S
SCRANTON       LGT RAIN  45  41  86 E3        30.12F
$$

CTZ002-004>006-009-010-012-RIZ004-006-007-MAZ004-011-015-011100-
SOUTHERN NEW ENGLAND
 IN CT

CITY           SKY/WX    TMP DP  RH WIND       PRES   REMARKS
BRADLEY INTL   CLOUDY    45  36  70 S5        30.22R
HARTFORD       CLOUDY    48  37  65 CALM      30.23R
DANBURY        CLOUDY    46  37  71 CALM      30.22R
WTRBRY/OXFORD  CLOUDY    45  36  70 CALM      30.23R
BRIDGEPORT     CLOUDY    49  40  71 SE5       30.22S
MERIDEN        CLOUDY    46  37  71 CALM      30.23R
NEW HAVEN      CLOUDY    47  39  74 E3        30.23R
CHESTER        FAIR      43  37  81 CALM      30.22S
GROTON         CLOUDY    45  43  93 CALM      30.24R
WILLIMANTIC    CLOUDY    44  36  73 CALM      30.24R

 IN RI

CITY           SKY/WX    TMP DP  RH WIND       PRES   REMARKS
PROVIDENCE     MOCLDY    43  37  79 CALM      30.24R
BLOCK ISLAND   CLOUDY    44  39  82 E3        30.25R
WESTERLY       CLOUDY    42  36  79 CALM      30.25R

 IN MA

CITY           SKY/WX    TMP DP  RH WIND       PRES   REMARKS
BOSTON         CLOUDY    44  35  70 S5        30.24S
WORCESTER      CLOUDY    43  22  43 W10       30.20R
WESTFIELD      CLOUDY    44  35  70 S3        30.22R
PROVINCETOWN   CLOUDY    37  34  89 CALM      30.25S
NANTUCKET      CLOUDY    44  39  82 E6        30.25R
$$

ANZ330-335-338-340-345-350-353-355-011100-
COASTAL MARINE OBSERVATIONS


STATION/POSITION TIME  SKY/WX   TEMP    WIND        PRES    VSBY  WAVE
                                AIR SEA DIR/SP/G                  HT/PER
                 (UTC)          (F)     (DEG/KT/KT) (MB)    (MI)  (FT/S)
NY HARB ENTRANCE 0850            48 51  130/  6/  8 1022.2          4/ 8
20S FIRE ISLAND  0850            47 49  100/  6/  8 1022.4          4/ 8
GREAT SOUTH BAY  0900            48 57  120/  6/  8   N/A
23 SSW MONTAUK P 0950            46 47  110/  8/ 10 1023.0          4/ 8
15 E BARNEGAT LI NOT AVBL
HUDSON CANYON    0850            48 48              1022.3          5/ 8
KINGS POINT      0900            48 53              1022.3
EXECUTION ROCKS  NOT AVBL
CENTRAL LI SOUND NOT AVBL
EASTERN LI SOUND 0900            47 48  120/  4/  6   N/A
ROBBINS REEF     0900            50     120/  7/  8 1021.6
$$


>>>>>>>>>>>>>>>>>>>>>>>>>>>> KEY <<<<<<<<<<<<<<<<<<<<<<<<<<<
>                                                          <
>     SKY/WX - SKY CONDITION/PRESENT WEATHER               <
>     TMP    - TEMPERATURE IN FAHRENHEIT                   <
>     DP     - DEWPOINT IN FAHRENHEIT                      <
>     RH     - RELATIVE HUMIDITY IN PERCENT                <
>     WIND   - DIRECTION AND SPEED IN MPH                  <
>     PRES   - MEAN SEA LEVEL PRESSURE IN INCHES OF HG     <
>     WCI    - WIND CHILL INDEX                            <
>     VSB    - VISIBILITY IN MILES                         <
>     HX     - HEAT INDEX                                  <
>     TC     - TEMPERATURE IN CELSIUS                      <
>     VRB    - VARIABLE WIND DIRECTION                     <
>                                                          <
>>>>>>>>>>>>>>>>>>>>>>>>>>>> KEY <<<<<<<<<<<<<<<<<<<<<<<<<<<






USA.gov is the U.S. government's official web portal to all federal, state and local government web resources and services.